Satellite-Ground Cal/Val Site Overpasses Predictions

Prediction of Satellite NPP Overpassing Cal/Val Site: Antarctic Dome C

Ground Cal/Val Site Location: Latitude: -75.10, Longitude: 123.35; Satellite-Ground Site NADIR distance within 100 km.

Table of predicted overpasses for the next 14.0 days since TLE Epoch: 6/16/2017
Interval Starting Time Ending Time Minimum Distance Time Minimum Distance (km)
1 06/16/2017 15:07:24 06/16/2017 15:07:32 06/16/2017 15:07:28 94.83
2 06/17/2017 14:48:24 06/17/2017 14:48:53 06/17/2017 14:48:39 16.60
3 06/19/2017 07:31:13 06/19/2017 07:31:42 06/19/2017 07:31:28 3.02
4 06/22/2017 14:54:39 06/22/2017 14:55:08 06/22/2017 14:54:54 20.02
5 06/23/2017 14:35:58 06/23/2017 14:36:12 06/23/2017 14:36:05 86.93
6 06/24/2017 07:37:30 06/24/2017 07:37:58 06/24/2017 07:37:44 33.10
7 06/25/2017 07:18:44 06/25/2017 07:19:03 06/25/2017 07:18:53 77.11
8 06/27/2017 15:00:58 06/27/2017 15:01:22 06/27/2017 15:01:10 56.81
9 06/28/2017 14:42:08 06/28/2017 14:42:33 06/28/2017 14:42:21 52.28
10 06/29/2017 07:43:48 06/29/2017 07:44:09 06/29/2017 07:43:59 68.26


NCC Satellite Cal/Val Overpasses Prediction Service
